Regional Weather Roundup
Issued by NWS Wilmington, NC

Home | Current Version | Previous Version | Text Only | Print | Product List | Glossary On
Versions: 1 2 3 4 5 6 7 8 9 10 11 12 13 14 15 16 17 18 19 20 21 22 23 24 25 26 27 28 29 30 31 32 33 34 35 36 37 38 39 40 41 42 43 44 45 46 47 48 49 50
000
ASUS42 KILM 280513
RWRILM
RWRILM
REGIONAL HOURLY WEATHER ROUNDUP
NATIONAL WEATHER SERVICE WILMINGTON NC
100 AM EDT TUE JUL 28 2015

NOTE: "FAIR" INDICATES FEW OR NO CLOUDS BELOW 12,000 FEET WITH NO
SIGNIFICANT WEATHER AND/OR OBSTRUCTIONS TO VISIBILITY.

...............WFO WILMINGTON COUNTY WARNING AREA...............

......COASTAL NC AND SC COUNTIES......

CITY           SKY/WX    TMP DP  RH WIND       PRES   REMARKS
WILMINGTON     CLEAR     73  71  93 N3        29.99F
N MYRTLE BEACH CLOUDY    80  73  79 NE3       29.98S
MYRTLE BEACH   MOCLDY    81  72  74 E6          N/A

......INLAND NC AND SC COUNTIES.......

CITY           SKY/WX    TMP DP  RH WIND       PRES   REMARKS
LUMBERTON      MOCLDY    78  70  76 E5        30.00R
ELIZABETHTOWN  PTCLDY    74  73  96 CALM      30.01R
WHITEVILLE     MOCLDY    74  72  94 CALM      30.00R
FLORENCE       PTCLDY    78  74  87 CALM      30.00R
DARLINGTON     MOCLDY    81  72  74 CALM      30.02R

....................REST OF NORTH CAROLINA......................

.........EASTERN NC.........

CITY           SKY/WX    TMP DP  RH WIND       PRES   REMARKS
CAPE HATTERAS  CLEAR     76  69  79 E5        30.03R
JACKSONVILLE   CLEAR     72  66  83 N6        30.01F
MOREHEAD CITY  PTCLDY    78  71  79 SE5       30.00F
KENANSVILLE    CLEAR     72  70  95 CALM      30.03S
NEW BERN       CLEAR     73  70  90 CALM      30.03S
ELIZABETH CITY PTCLDY    73  70  90 CALM      30.03S

.........CENTRAL NC.........

CITY           SKY/WX    TMP DP  RH WIND       PRES   REMARKS
RALEIGH DURHAM MOCLDY    78  70  76 S5        30.02S
ROCKY MOUNT    PTCLDY    73  71  93 SE3       30.02S
ROANOKE RAPIDS NOT AVBL
FAYETTEVILLE   PTCLDY    76  71  85 CALM      30.01S
HOFFMAN        CLOUDY    77  74  92 SW3       30.02R

.........WESTERN NC.........

CITY           SKY/WX    TMP DP  RH WIND       PRES   REMARKS
CHARLOTTE      CLOUDY    77  71  82 SE12      30.04R
GREENSBORO     MOCLDY    72  70  93 S3        30.04R
HICKORY        NOT AVBL
BOONE          NOT AVBL
ASHEVILLE      NOT AVBL

.....................REST OF SOUTH CAROLINA.....................

.........EASTERN SC.........

CITY           SKY/WX    TMP DP  RH WIND       PRES   REMARKS
CHARLESTON     CLEAR     79  76  90 NE5       29.96S
BEAUFORT MCAS  PTCLDY    79  77  94 NE5       29.96S
HILTON HEAD    PTCLDY    79  79 100 MISG      29.97S

.........CENTRAL SC.........

CITY           SKY/WX    TMP DP  RH WIND       PRES   REMARKS
COLUMBIA       MOCLDY    83  72  69 NE5       30.00R
ORANGEBURG     CLEAR     79  73  82 CALM      29.99S
SUMTER SHAW    CLOUDY    81  74  80 SE5       29.98R

.........WESTERN SC.........

CITY           SKY/WX    TMP DP  RH WIND       PRES   REMARKS
GREENVILLE     NOT AVBL
ROCK HILL      MOCLDY    75  73  93 CALM      30.04R
ANDERSON       CLOUDY    78  71  79 E5        30.01S
CLEMSON        NOT AVBL
GREENWOOD      PTCLDY    79  69  71 SE5       30.02R


...................COASTAL AND OFFSHORE REPORTS..................

................LOCAL PIERS AND NC RESERVE................


STATION/POSITION TIME  SKY/WX   TEMP    WIND        PRES    VSBY
                                AIR SEA DIR/SP/G
                 (UTC)          (F)     (DEG/KT/KT) (MB)    (MI)
JOHNY MRCER PIER 0400            81 84  110/  8/  9 1015.2R
NC RESRV MASNBRO NOT AVBL
OCEAN CREST PIER NOT AVBL
SPRINGMAID  PIER 0400            82 85   70/  7/  8 1015.2F


................COASTAL AND OFFSHORE BUOYS................


STATION/POSITION TIME  SKY/WX   TEMP    WIND        PRES    VSBY
                                AIR SEA DIR/SP/G
                 (UTC)          (F)     (DEG/KT/KT) (MB)    (MI)
DIMNDSHOAL 41025 NOT AVBL
CAPE LOOKOUT     0500            80     120/  9/ 10 1015.5F
ONSLOW BAY 41036 NOT AVBL
5 WRITEBCH 41038 0408            81 81  120/  8/ 10 1015.6S
MASONBORO  41110 0419               81                N/A
WVE H/P(F/S)=  3/ 6 WND WVE H/P(F/S)=  3/ 6

WILM HARBR 41108 0411               82                N/A
WVE H/P(F/S)=  3/ 6 WND WVE H/P(F/S)=  3/ 6

27WRITEBCH 41037 0400            78 81  110/ 10/ 10   N/A
FRYING PAN 41013 0450            83 83  110/ 12/ 14 1015.0F
WVE H/P(F/S)=  4/ 6 WND WVE H/P(F/S)=  3/ 4 SWL H/P/D(F/S/D)=  3/110/ 6

SUNST NRSH 41024 0408            82     110/  8/ 10 1015.0F
CAPRS NRSH 41029 0408            82      80/  8/ 10 1014.5F
EDISTO     41004 0450            83 84   50/  4/  4 1013.7F
WVE H/P(F/S)=  3/ 7 WND WVE H/P(F/S)=  2/ 4 SWL H/P/D(F/S/D)=  3/ 7



..........OFFSHORE BUOYS BEYOND 100 NM OFFSHORE...........
.....IN A TRIANGLE---HAT TO BERMUDA TO BAHAMAS TO HAT.....


STATION/POSITION TIME  SKY/WX   TEMP    WIND        PRES    VSBY
                                AIR SEA DIR/SP/G
                 (UTC)          (F)     (DEG/KT/KT) (MB)    (MI)
150E HAT   41001 0400            81 83   90/  8/ 10 1016.6F
W BERMUDA  41048 0450            78 81  270/ 27/ 39 1017.0R
WVE H/P(F/S)=  6/ 7 WND WVE H/P(F/S)=  7/ 7 SWL H/P/D(F/S/D)=  2/100/11

ATLANTIC S 41049 0450            83 85  270/  4/  6 1020.2F
WVE H/P(F/S)=  3/ 8 SWL H/P/D(F/S/D)=  3/130/ 8

E BAHAMAS  41046 0450            83 85  110/  8/ 12 1019.8F
WVE H/P(F/S)=  3/ 7 WND WVE H/P(F/S)=  2/ 3 SWL H/P/D(F/S/D)=  3/120/ 7

NE BAHAMAS 41047 0450            83 84  210/  8/ 10 1018.8F
WVE H/P(F/S)=  3/ 6 WND WVE H/P(F/S)=  2/ 3 SWL H/P/D(F/S/D)=  3/180/ 6

120E CANVRL41010 0420            84 84  200/ 14/ 17 1015.9S

END


USA.gov is the U.S. government's official web portal to all federal, state and local government web resources and services.